User: anonymous   Login
Location: Lourdes
(43.1000°N, 0.0500°W)
Time: 13:59:33
(UTC+00:00)
Language:

Cosmos 773 Rocket - Orbit

View from above orbital plane
View from above orbital plane
View from above satellite
View from above satellite

Ground track
Ground track

The orbit data is extracted from the following two-line orbital elements,

1 08344U 75094B   21125.91236294  .00000019  00000-0  14529-4 0  9996
2 08344  74.0594  31.1846 0022751 295.4695  64.4106 14.39179515389512
Epoch (UTC): 05 May 2021 21:53:48
Eccentricity: 0.0022751
inclination: 74.0594°
perigee height: 745 km
apogee height: 777 km
right ascension of ascending node: 31.1846°
argument of perigee: 295.4695°
revolutions per day: 14.39179515
mean anomaly at epoch: 64.4106°
orbit number at epoch: 38951

The dashed part of the orbit path shows where the satellite is in the earth's shadow,  

DLR